Tracking 33679 objects as of 4-Apr-2026
HD Live streaming from Space Station
objects crossing your sky now
Track ARTEMIS 2 (INTEGRITY)

EUTELSAT 7C

Track EUTELSAT 7C now!
EUTELSAT 7C is classified as:


NORAD ID: 44334
Int'l Code: 2019-034B
Perigee: 35,780.4 km
Apogee: 35,808.4 km
Inclination: 0.1 °
Period: 1,436.1 minutes
Semi major axis: 42165 km
RCS: Unknown
Launch date: June 20, 2019
Source: European Telecommunications Satellite Organization (EUTE)
Launch site: FRENCH GUIANA (FRGUI)
Your satellite tracking list
Your tracking list is empty




NASA's NSSDC Master Catalog

Two Line Element Set (TLE):
1 44334U 19034B   26093.93725448  .00000047  00000-0  00000-0 0  9998
2 44334   0.0643 183.8817 0003317 178.9703 173.8197  1.00269419  6091
Source of the keplerian elements: AFSPC